Location: Unspecified
(35.6961°N, 0.0000°E)
Time: 15:38:00
(UTC+00:00)

Vanguard 1 Rocket - All Passes

Search period start: 20 May 2019 00:00
Search period end: 30 May 2019 00:00
Orbit: 652 x 4224 km, 34.3° (Epoch: 18 May)

Date Brightness Start Highest point End Pass type
(mag) Time Alt. Az. Time Alt. Az. Time Alt. Az.
20 May - 00:11:47 10° S 00:14:36 15° SE 00:18:01 10° ESE visible
20 May - 02:32:54 10° WSW 02:38:32 66° SSE 02:48:57 10° E visible
20 May - 04:56:43 10° W 05:04:56 82° S 05:21:50 10° E daylight
20 May - 07:21:31 10° W 07:33:23 59° SSW 07:55:14 10° SE daylight
20 May - 09:49:23 10° W 10:03:25 30° SW 10:22:56 10° SSE daylight
21 May - 01:22:57 10° SW 01:27:39 42° SSE 01:35:06 10° E visible
21 May - 03:46:14 10° W 03:52:56 83° S 04:06:19 10° E visible
21 May - 06:10:30 10° W 06:20:19 69° SSW 06:39:55 10° ESE daylight
21 May - 08:36:28 10° W 08:49:34 40° SSW 09:10:32 10° SSE daylight
21 May - 11:11:10 10° WSW 11:19:57 14° SW 11:29:56 10° SSW daylight
22 May - 00:13:37 10° SSW 00:17:10 22° SE 00:21:42 10° E visible
22 May - 02:35:54 10° WSW 02:41:27 74° SSE 02:51:40 10° E visible
22 May - 04:59:48 10° W 05:07:50 78° S 05:24:16 10° ESE daylight
22 May - 07:24:42 10° W 07:36:05 50° SSW 07:56:39 10° SE daylight
22 May - 09:53:44 10° W 10:05:58 23° SW 10:22:18 10° S daylight
23 May - 01:25:45 10° SW 01:30:28 53° SSE 01:37:59 10° E visible
23 May - 03:49:19 10° W 03:55:53 82° S 04:08:56 10° E visible
23 May - 06:13:36 10° W 06:23:07 61° SSW 06:41:49 10° SE daylight
23 May - 08:40:06 10° W 08:52:13 32° SSW 09:10:54 10° SSE daylight
24 May - 00:15:56 10° SSW 00:19:51 30° SSE 00:24:59 10° E visible
24 May - 02:38:57 10° W 02:44:25 79° S 02:54:24 10° E visible
24 May - 05:02:54 10° W 05:10:43 71° SSW 05:26:36 10° ESE daylight
24 May - 07:28:01 10° W 07:38:49 41° SSW 07:57:43 10° SE daylight
24 May - 09:59:16 10° WSW 10:08:40 16° SW 10:20:21 10° S daylight
24 May - 23:07:00 10° S 23:09:21 14° SE 23:11:52 10° ESE night (unlit)
25 May - 01:28:40 10° WSW 01:33:22 63° SSE 01:40:50 10° E visible
25 May - 03:52:25 10° W 03:58:52 79° S 04:11:32 10° ESE visible
25 May - 06:16:46 10° W 06:25:57 51° SSW 06:43:29 10° SE daylight
25 May - 08:44:11 10° W 08:54:57 24° SSW 09:10:39 10° S daylight
26 May - 00:18:31 10° SW 00:22:40 39° SSE 00:28:04 10° E visible
26 May - 02:42:02 10° W 02:47:25 81° S 02:57:08 10° E visible
26 May - 05:06:01 10° W 05:13:38 62° SSW 05:28:45 10° ESE daylight
26 May - 07:31:33 10° W 07:41:38 33° SSW 07:58:23 10° SSE daylight
26 May - 23:08:44 10° SSW 23:12:06 21° SSE 23:15:42 10° E night (unlit)
27 May - 01:31:40 10° WSW 01:36:20 72° S 01:43:40 10° E visible
27 May - 03:55:32 10° W 04:01:49 72° S 04:14:03 10° ESE visible
27 May - 06:20:04 10° W 06:28:49 42° SSW 06:44:51 10° SE daylight
27 May - 08:49:10 10° WSW 08:57:49 17° SW 09:09:21 10° S daylight
27 May - 22:00:55 10° SSE 22:01:24 10° SSE 22:01:53 10° SE night (unlit)
28 May - 00:21:18 10° WSW 00:25:33 51° SSE 00:31:05 10° E visible
28 May - 02:45:09 10° W 02:50:26 79° S 02:59:53 10° E visible
28 May - 05:09:11 10° W 05:16:33 52° SSW 05:30:42 10° SE daylight
28 May - 07:35:29 10° WSW 07:44:32 25° SSW 07:58:30 10° SSE daylight
28 May - 23:11:01 10° SW 23:14:56 30° SSE 23:19:05 10° E night (unlit)
29 May - 01:34:43 10° W 01:39:21 78° S 01:46:31 10° E visible
29 May - 03:58:39 10° W 04:04:48 63° SSW 04:16:28 10° ESE visible
29 May - 06:23:33 10° W 06:31:45 33° SSW 06:45:51 10° SSE daylight
29 May - 08:57:02 10° SW 09:00:48 11° SW 09:05:03 10° SSW daylight
29 May - 22:01:09 10° SSW 22:04:15 17° SSE 22:07:06 10° ESE night (unlit)
